[TLELIST] Archives

 

[list_settings.list_name] Current TLEs

December 18th 2008 PST

HST 1 20580U 90037B 08352.00124794 .00000344 00000-0 13751-4 0 2859 2 20580 028.4694 210.8228 0003896 165.8669 194.2031 15.00439378822462 ISS (ZARYA) 1 25544U 98067A 08351.53023190 .00004963 00000-0 41927-4 0 8684 2 25544 051.6397 161.8912 0006856 103.3633 316.0461 15.71876618577229 CXO 1 25867U 99040B 08339.56655706 .00000000 00000-0 10000-3 0 2721 2 25867 064.5709 075.6392 7151623 277.1635 013.5567 00.37817443 4287 ____________________________________________________________________ These 2-Line ...Continue Reading

[list_settings.list_name] Current TLEs

December 17th 2008 PST

HST 1 20580U 90037B 08350.87047113 .00000363 00000-0 15251-4 0 2848 2 20580 028.4696 218.1975 0003914 153.6737 206.4051 15.00439107822295 ISS (ZARYA) 1 25544U 98067A 08351.19806713 .00005086 00000-0 42860-4 0 8657 2 25544 051.6399 163.5917 0006813 101.7894 236.7196 15.71873569577167 CXO 1 25867U 99040B 08339.56655706 .00000000 00000-0 10000-3 0 2721 2 25867 064.5709 075.6392 7151623 277.1635 013.5567 00.37817443 4287 ____________________________________________________________________ These 2-Line ...Continue Reading

[list_settings.list_name] Current TLEs

December 16th 2008 PST

HST 1 20580U 90037B 08347.87723597 .00000366 00000-0 15484-4 0 2820 2 20580 028.4704 237.7201 0003870 124.2651 235.8304 15.00438004821846 ISS (ZARYA) 1 25544U 98067A 08348.87459672 .00004576 00000-0 39074-4 0 8494 2 25544 051.6403 175.4852 0006756 093.4194 048.4195 15.71845316576805 CXO 1 25867U 99040B 08339.56655706 .00000000 00000-0 10000-3 0 2721 2 25867 064.5709 075.6392 7151623 277.1635 013.5567 00.37817443 4287 ____________________________________________________________________ These 2-Line ...Continue Reading

[list_settings.list_name] Current TLEs

December 15th 2008 PST

HST 1 20580U 90037B 08347.87723597 .00000366 00000-0 15484-4 0 2820 2 20580 028.4704 237.7201 0003870 124.2651 235.8304 15.00438004821846 ISS (ZARYA) 1 25544U 98067A 08348.16920359 .00004350 00000-0 37389-4 0 8443 2 25544 051.6409 179.0963 0006792 090.4444 017.1448 15.71837027576690 CXO 1 25867U 99040B 08339.56655706 .00000000 00000-0 10000-3 0 2721 2 25867 064.5709 075.6392 7151623 277.1635 013.5567 00.37817443 4287 ____________________________________________________________________ These 2-Line ...Continue Reading

[list_settings.list_name] Current TLEs

December 14th 2008 PST

HST 1 20580U 90037B 08347.87723597 .00000366 00000-0 15484-4 0 2820 2 20580 028.4704 237.7201 0003870 124.2651 235.8304 15.00438004821846 ISS (ZARYA) 1 25544U 98067A 08348.16920359 .00004350 00000-0 37389-4 0 8443 2 25544 051.6409 179.0963 0006792 090.4444 017.1448 15.71837027576690 CXO 1 25867U 99040B 08339.56655706 .00000000 00000-0 10000-3 0 2721 2 25867 064.5709 075.6392 7151623 277.1635 013.5567 00.37817443 4287 ____________________________________________________________________ These 2-Line ...Continue Reading

[list_settings.list_name] Current TLEs

December 13th 2008 PST

HST 1 20580U 90037B 08346.14780929 .00000373 00000-0 16000-4 0 2813 2 20580 028.4706 248.9979 0003862 106.4277 253.6739 15.00437387821585 ISS (ZARYA) 1 25544U 98067A 08347.15069758 .00004417 00000-0 37909-4 0 8372 2 25544 051.6410 184.3090 0006794 087.5376 012.8598 15.71826991576534 CXO 1 25867U 99040B 08339.56655706 .00000000 00000-0 10000-3 0 2721 2 25867 064.5709 075.6392 7151623 277.1635 013.5567 00.37817443 4287 ____________________________________________________________________ These 2-Line ...Continue Reading

[list_settings.list_name] Current TLEs

December 12th 2008 PST

HST 1 20580U 90037B 08346.14780929 .00000373 00000-0 16000-4 0 2813 2 20580 028.4706 248.9979 0003862 106.4277 253.6739 15.00437387821585 ISS (ZARYA) 1 25544U 98067A 08346.19802227 .00005331 00000-0 44793-4 0 8310 2 25544 051.6416 189.1853 0006664 084.1009 021.9046 15.71820573576384 CXO 1 25867U 99040B 08339.56655706 .00000000 00000-0 10000-3 0 2721 2 25867 064.5709 075.6392 7151623 277.1635 013.5567 00.37817443 4287 ____________________________________________________________________ These 2-Line ...Continue Reading

[list_settings.list_name] Current TLEs

December 11th 2008 PST

HST 1 20580U 90037B 08344.88399669 .00000356 00000-0 14668-4 0 2807 2 20580 028.4708 257.2415 0003762 093.5433 266.5585 15.00436750821398 ISS (ZARYA) 1 25544U 98067A 08344.22676666 .00009488 00000-0 76093-4 0 8201 2 25544 051.6406 199.2754 0006766 077.7887 026.3572 15.71808722576071 CXO 1 25867U 99040B 08339.56655706 .00000000 00000-0 10000-3 0 2721 2 25867 064.5709 075.6392 7151623 277.1635 013.5567 00.37817443 4287 ____________________________________________________________________ These 2-Line ...Continue Reading

[list_settings.list_name] Current TLEs

December 10th 2008 PST

HST 1 20580U 90037B 08343.22108378 .00000339 00000-0 13382-4 0 2790 2 20580 028.4707 268.0853 0003687 076.1612 283.9386 15.00435988821142 ISS (ZARYA) 1 25544U 98067A 08343.37898148 .00010034 00000-0 80246-4 0 8155 2 25544 051.6415 203.6133 0006657 075.2224 268.5273 15.71794110575936 CXO 1 25867U 99040B 08339.56655706 .00000000 00000-0 10000-3 0 2721 2 25867 064.5709 075.6392 7151623 277.1635 013.5567 00.37817443 4287 ____________________________________________________________________ These 2-Line ...Continue Reading

[list_settings.list_name] Current TLEs

December 9th 2008 PST

HST 1 20580U 90037B 08342.15681883 .00000330 00000-0 12655-4 0 2780 2 20580 028.4708 275.0265 0003636 064.9083 295.1881 15.00435557820987 ISS (ZARYA) 1 25544U 98067A 08343.20867019 .00010012 00000-0 80097-4 0 8138 2 25544 051.6415 204.4852 0006739 074.2340 025.1685 15.71790479575918 CXO 1 25867U 99040B 08339.56655706 .00000000 00000-0 10000-3 0 2721 2 25867 064.5709 075.6392 7151623 277.1635 013.5567 00.37817443 4287 ____________________________________________________________________ These 2-Line ...Continue Reading
  • This mailing list is a public mailing list - anyone may join or leave, at any time.
  • This mailing list is announce-only.

International Space Station (ISS) / Hubble Space Telescope (HST) / Chandra X-Ray Observatory Orbital Data via EMAIL

Privacy Policy:

Private list